GW5139 Weather Reports


time (UTC)temp
C
wind
direction
speed
KPH
gust
KPH
rain 1hr
cm
rain 24hr
cm
rain mn
cm
humidity
%
barometer
mb
20260508023750 -17 0.0 0.0 0.00 0.00 0.00 1015.5
20260508023247 9 270 0.0 0.0 0.00 0.00 0.00 55 1015.4
20260508022742 9 270 0.0 0.0 0.00 0.00 0.00 55 1015.4
20260508022239 9 263 0.0 0.0 0.00 0.00 0.00 54 1015.4
20260508021736 9 263 0.0 0.0 0.00 0.00 0.00 54 1015.4
20260508021231 9 268 1.6 3.2 0.00 0.00 0.00 56 1015.3
20260508020729 9 251 0.0 0.0 0.00 0.00 0.00 54 1015.2
20260508020226 10 259 0.0 1.6 0.00 0.00 0.00 55 1015.1
20260508015723 10 286 0.0 1.6 0.00 0.00 0.00 54 1015.2
20260508015220 10 296 0.0 4.8 0.00 0.00 0.00 53 1015.2
20260508014717 10 270 0.0 0.0 0.00 0.00 0.00 52 1015.0
20260508014214 10 271 1.6 1.6 0.00 0.00 0.00 51 1015.0
20260508013709 10 294 0.0 6.4 0.00 0.00 0.00 52 1015.0
20260508013206 10 288 1.6 4.8 0.00 0.00 0.00 50 1014.6
20260508012704 10 270 0.0 0.0 0.00 0.00 0.00 51 1014.6
20260508012200 11 281 1.6 3.2 0.00 0.00 0.00 48 1014.8
20260508011659 11 269 0.0 1.6 0.00 0.00 0.00 48 1014.5
20260508011156 11 285 1.6 3.2 0.00 0.00 0.00 46 1014.3
20260508010653 11 238 0.0 11.3 0.00 0.00 0.00 47 1014.4
20260508010151 12 287 3.2 6.4 0.00 0.00 0.00 45 1014.5
20260508005648 12 265 4.8 12.9 0.00 0.00 0.00 45 1014.2
20260508005144 12 278 4.8 4.8 0.00 0.00 0.00 45 1014.1
20260508004640 12 290 4.8 6.4 0.00 0.00 0.00 44 1014.2
20260508004136 12 291 3.2 4.8 0.00 0.00 0.00 45 1014.0
20260508003633 12 282 3.2 9.7 0.00 0.00 0.00 45 1014.1
20260508003131 12 274 0.0 6.4 0.00 0.00 0.00 45 1014.0
20260508002627 12 262 3.2 11.3 0.00 0.00 0.00 45 1014.0
20260508002125 12 274 3.2 12.9 0.00 0.00 0.00 44 1013.9
20260508001619 12 265 4.8 9.7 0.00 0.00 0.00 43 1013.8
20260508001116 13 278 6.4 14.5 0.00 0.00 0.00 42 1013.6
20260508000612 13 253 4.8 12.9 0.00 0.00 0.00 42 1013.5
20260508000110 13 267 8.0 11.3 0.00 0.00 0.00 41 1013.7
20260507235606 13 263 3.2 12.9 0.00 0.00 0.00 43 1013.5
20260507235104 13 295 6.4 9.7 0.00 0.00 0.00 43 1013.3
20260507234600 13 284 12.9 14.5 0.00 0.00 0.00 42 1013.2
20260507234056 14 283 9.7 16.1 0.00 0.00 0.00 41 1013.2
20260507233553 15 275 6.4 17.7 0.00 0.00 0.00 44 1013.3
20260507233052 15 252 4.8 9.7 0.00 0.00 0.00 42 1013.1
20260507232547 15 287 6.4 9.7 0.00 0.00 0.00 42 1012.9
20260507232045 14 257 6.4 9.7 0.00 0.00 0.00 43 1013.0
20260507231541 14 260 3.2 4.8 0.00 0.00 0.00 46 1013.1
20260507231039 15 267 12.9 17.7 0.00 0.00 0.00 40 1012.9
20260507230535 15 270 9.7 14.5 0.00 0.00 0.00 40 1013.0
20260507230032 15 294 11.3 20.9 0.00 0.00 0.00 42 1012.9
20260507225527 15 289 6.4 12.9 0.00 0.00 0.00 43 1012.8
20260507225024 15 281 4.8 20.9 0.00 0.00 0.00 43 1012.8
20260507224519 15 262 16.1 20.9 0.00 0.00 0.00 41 1012.8
20260507224016 16 272 4.8 11.3 0.00 0.00 0.00 41 1012.9
20260507223512 15 317 1.6 16.1 0.00 0.00 0.00 44 1012.7
20260507223010 15 292 6.4 9.7 0.00 0.00 0.00 45 1012.6
20260507222507 14 253 9.7 12.9 0.00 0.00 0.00 43 1012.7
20260507222003 14 240 11.3 14.5 0.00 0.00 0.00 45 1012.6
20260507221459 14 273 4.8 12.9 0.00 0.00 0.00 46 1012.7
20260507220956 14 277 6.4 11.3 0.00 0.00 0.00 47 1012.6
20260507220454 14 288 6.4 14.5 0.00 0.00 0.00 43 1012.6
20260507215950 14 278 4.8 9.7 0.00 0.00 0.00 44 1012.5
20260507215446 14 272 3.2 9.7 0.00 0.00 0.00 44 1012.5
20260507214944 14 283 4.8 12.9 0.00 0.00 0.00 45 1012.6
20260507214442 15 253 8.0 20.9 0.00 0.00 0.00 43 1012.4
20260507213937 15 310 0.0 6.4 0.00 0.00 0.00 50 1012.2
20260507213428 15 284 3.2 6.4 0.00 0.00 0.00 46 1012.4
20260507212925 15 275 6.4 12.9 0.00 0.00 0.00 47 1012.2
20260507212420 15 290 0.0 4.8 0.00 0.00 0.00 53 1012.3
20260507211918 15 256 1.6 6.4 0.00 0.00 0.00 49 1012.2
20260507211414 16 280 6.4 14.5 0.00 0.00 0.00 40 1012.0
20260507210911 17 338 0.0 6.4 0.00 0.00 0.00 52 1012.0
20260507210408 16 271 6.4 6.4 0.00 0.00 0.00 48 1012.1
20260507205904 16 268 3.2 4.8 0.00 0.00 0.00 45 1012.1
20260507205402 16 254 1.6 11.3 0.00 0.00 0.00 47 1012.0
20260507204858 16 181 4.8 6.4 0.00 0.00 0.00 42 1012.3
20260507204355 15 344 0.0 9.7 0.00 0.00 0.00 45 1012.2
20260507203852 15 226 14.5 16.1 0.00 0.00 0.00 41 1012.1
20260507203350 17 258 3.2 14.5 0.00 0.00 0.00 43 1012.0
20260507202846 17 221 1.6 11.3 0.00 0.00 0.00 41 1012.0
20260507202337 17 247 9.7 12.9 0.00 0.00 0.00 45 1012.2
20260507201833 16 274 9.7 16.1 0.00 0.00 0.00 43 1012.3
20260507201328 15 287 6.4 24.1 0.00 0.00 0.00 49 1012.1
20260507200825 16 273 9.7 14.5 0.00 0.00 0.00 43 1012.2
20260507200321 15 254 3.2 12.9 0.00 0.00 0.00 55 1012.3
20260507195817 15 278 14.5 17.7 0.00 0.00 0.00 43 1012.3
20260507195314 15 279 8.0 11.3 0.00 0.00 0.00 49 1012.5
20260507194812 15 280 6.4 11.3 0.00 0.00 0.00 47 1012.6
20260507194308 16 301 4.8 14.5 0.00 0.00 0.00 51 1012.8
20260507193805 15 260 9.7 12.9 0.00 0.00 0.00 46 1012.7
20260507193302 15 242 4.8 9.7 0.00 0.00 0.00 47 1012.8
20260507192757 15 282 14.5 24.1 0.00 0.00 0.00 46 1012.7
20260507192254 15 247 9.7 12.9 0.00 0.00 0.00 47 1012.7
20260507191750 15 303 3.2 6.4 0.00 0.00 0.00 49 1012.6
20260507191247 15 257 14.5 20.9 0.00 0.00 0.00 43 1012.7
20260507190743 16 252 6.4 22.5 0.00 0.00 0.00 48 1012.7
20260507190242 15 286 6.4 9.7 0.00 0.00 0.00 53 1012.8
20260507185740 15 261 8.0 17.7 0.00 0.00 0.00 49 1012.9
20260507185237 15 269 4.8 11.3 0.00 0.00 0.00 54 1012.8
20260507184735 15 289 6.4 11.3 0.00 0.00 0.00 48 1012.9
20260507184232 17 233 4.8 9.7 0.00 0.00 0.00 50 1012.9
20260507183729 16 293 16.1 20.9 0.00 0.00 0.00 43 1012.8
20260507183226 15 297 1.6 4.8 0.00 0.00 0.00 56 1012.8
20260507182723 15 257 4.8 11.3 0.00 0.00 0.00 49 1012.9
20260507182218 15 274 6.4 14.5 0.00 0.00 0.00 47 1013.0
20260507181715 16 242 3.2 11.3 0.00 0.00 0.00 48 1012.8
20260507181211 15 282 11.3 22.5 0.00 0.00 0.00 49 1012.9
20260507180709 15 281 11.3 14.5 0.00 0.00 0.00 48 1012.9
20260507180205 15 239 8.0 12.9 0.00 0.00 0.00 49 1013.0
20260507175700 14 248 8.0 12.9 0.00 0.00 0.00 46 1013.0
20260507175158 14 279 1.6 12.9 0.00 0.00 0.00 54 1013.0
20260507174655 15 254 9.7 14.5 0.00 0.00 0.00 44 1013.0
20260507174153 15 278 11.3 14.5 0.00 0.00 0.00 46 1013.0
20260507173650 15 200 3.2 12.9 0.00 0.00 0.00 47 1013.5
20260507173147 15 278 6.4 11.3 0.00 0.00 0.00 54 1013.3
20260507172643 16 250 8.0 11.3 0.00 0.00 0.00 52 1013.3
20260507172141 15 185 3.2 14.5 0.00 0.00 0.00 47 1013.5
20260507171641 14 256 1.6 11.3 0.00 0.00 0.00 51 1013.6
20260507171138 15 282 0.0 11.3 0.00 0.00 0.00 58 1013.7
20260507170635 16 269 9.7 12.9 0.00 0.00 0.00 53 1013.9
20260507170132 15 236 4.8 9.7 0.00 0.00 0.00 54 1013.8
20260507165628 15 237 8.0 12.9 0.00 0.00 0.00 49 1014.0
20260507165124 15 88 1.6 4.8 0.00 0.00 0.00 56 1013.9
20260507164620 14 216 6.4 11.3 0.00 0.00 0.00 51 1013.8
20260507164117 15 268 8.0 16.1 0.00 0.00 0.00 50 1013.7
20260507163615 15 295 9.7 11.3 0.00 0.00 0.00 50 1013.9
20260507163113 14 274 9.7 12.9 0.00 0.00 0.00 52 1014.0
20260507162613 14 257 6.4 16.1 0.00 0.00 0.00 49 1014.1
20260507162110 15 246 3.2 12.9 0.00 0.00 0.00 50 1014.1
20260507161606 13 292 3.2 16.1 0.00 0.00 0.00 56 1014.1
20260507161103 13 303 8.0 12.9 0.00 0.00 0.00 55 1014.2
20260507160600 13 280 11.3 12.9 0.00 0.00 0.00 51 1014.3
20260507160056 13 236 6.4 11.3 0.00 0.00 0.00 51 1014.3
20260507155551 12 259 6.4 9.7 0.00 0.00 0.00 56 1014.3
20260507155049 12 286 6.4 11.3 0.00 0.00 0.00 56 1014.4
20260507154545 13 244 1.6 6.4 0.00 0.00 0.00 53 1014.3
20260507154043 13 239 3.2 4.8 0.00 0.00 0.00 55 1014.3
20260507153539 13 300 3.2 9.7 0.00 0.00 0.00 55 1014.4
20260507153035 13 274 6.4 9.7 0.00 0.00 0.00 49 1014.4
20260507152531 12 226 0.0 9.7 0.00 0.00 0.00 54 1014.5
20260507152028 13 280 4.8 6.4 0.00 0.00 0.00 60 1014.4
20260507151524 14 9 0.0 6.4 0.00 0.00 0.00 64 1014.8
20260507151021 13 239 3.2 9.7 0.00 0.00 0.00 55 1014.6
20260507150518 13 294 4.8 9.7 0.00 0.00 0.00 58 1014.8
20260507150015 13 214 1.6 4.8 0.00 0.00 0.00 54 1014.5
20260507145510 13 254 1.6 6.4 0.00 0.00 0.00 54 1014.8
20260507145008 12 248 3.2 9.7 0.00 0.00 0.00 56 1015.0
20260507144504 12 254 3.2 11.3 0.00 0.00 0.00 59 1015.0
20260507144001 12 255 3.2 14.5 0.00 0.00 0.00 56 1014.9
20260507143459 12 222 9.7 11.3 0.00 0.00 0.00 53 1015.0
20260507142955 12 263 4.8 6.4 0.00 0.00 0.00 62 1015.1
20260507142451 12 288 6.4 11.3 0.00 0.00 0.00 62 1015.2
20260507141948 12 258 3.2 6.4 0.00 0.00 0.00 55 1015.1
20260507141444 12 358 1.6 11.3 0.00 0.00 0.00 60 1015.2
20260507140941 12 92 0.0 4.8 0.00 0.00 0.00 62 1015.3
20260507140438 12 87 1.6 1.6 0.00 0.00 0.00 53 1015.2
20260507135936 12 242 0.0 4.8 0.00 0.00 0.00 57 1015.3
20260507135432 13 12 0.0 1.6 0.00 0.00 0.00 60 1015.4
20260507134930 13 104 0.0 0.0 0.00 0.00 0.00 61 1015.7
20260507134426 13 100 0.0 1.6 0.00 0.00 0.00 58 1015.5
20260507133922 12 103 0.0 0.0 0.00 0.00 0.00 55 1015.6
20260507133418 12 82 1.6 3.2 0.00 0.00 0.00 68 1015.6
20260507132917 12 65 1.6 3.2 0.00 0.00 0.00 65 1015.7
20260507132413 12 232 0.0 3.2 0.00 0.00 0.00 66 1015.8
20260507131909 12 95 0.0 0.0 0.00 0.00 0.00 66 1015.6
20260507131406 12 96 1.6 3.2 0.00 0.00 0.00 66 1015.8
20260507130903 12 86 3.2 3.2 0.00 0.00 0.00 66 1015.7
20260507130400 12 76 0.0 0.0 0.00 0.00 0.00 67 1015.7
20260507125859 11 99 1.6 3.2 0.00 0.00 0.00 70 1015.9
20260507125356 11 96 1.6 3.2 0.00 0.00 0.00 72 1015.7
20260507124854 11 83 1.6 1.6 0.00 0.00 0.00 73 1015.8
20260507124349 11 90 1.6 1.6 0.00 0.00 0.00 78 1015.7
20260507123848 11 107 3.2 3.2 0.00 0.00 0.00 75 1015.7
20260507123345 10 86 0.0 3.2 0.00 0.00 0.00 75 1015.8
20260507122841 10 223 0.0 0.0 0.00 0.00 0.00 77 1016.0
20260507122337 10 107 0.0 0.0 0.00 0.00 0.00 79 1015.8
20260507121833 10 107 0.0 0.0 0.00 0.00 0.00 87 1015.9
20260507121329 8 107 0.0 0.0 0.00 0.00 0.00 88 1015.7
20260507120826 8 107 0.0 0.0 0.00 0.00 0.00 89 1015.9
20260507120322 8 107 0.0 0.0 0.00 0.00 0.00 92 1015.9
20260507115818 8 107 0.0 0.0 0.00 0.00 0.00 94 1015.7
20260507115314 8 107 0.0 0.0 0.00 0.00 0.00 92 1015.4
20260507114810 8 107 0.0 0.0 0.00 0.00 0.00 94 1015.5
20260507114307 7 108 0.0 0.0 0.00 0.00 0.00 96 1015.6
20260507113805 7 108 0.0 0.0 0.00 0.00 0.00 97 1015.4
20260507113301 7 108 0.0 0.0 0.00 0.00 0.00 98 1015.5
20260507112759 7 108 0.0 0.0 0.00 0.00 0.00 99 1015.3
20260507112256 7 108 0.0 0.0 0.00 0.00 0.00 99 1015.2
20260507111754 7 108 0.0 0.0 0.00 0.00 0.00 99 1015.4
20260507111250 7 108 0.0 0.0 0.00 0.00 0.00 99 1015.2
20260507110746 6 108 0.0 0.0 0.00 0.00 0.00 99 1015.5
20260507110243 6 108 0.0 0.0 0.00 0.00 0.00 99 1015.2
20260507105740 6 107 0.0 0.0 0.00 0.00 0.00 99 1015.1
20260507105236 6 107 0.0 0.0 0.00 0.00 0.00 99 1015.2
20260507104733 6 107 0.0 0.0 0.00 0.00 0.00 99 1015.1
20260507104230 6 107 0.0 0.0 0.00 0.00 0.00 99 1014.9
20260507103726 6 107 0.0 0.0 0.00 0.00 0.00 99 1014.9
20260507103222 6 107 0.0 0.0 0.00 0.00 0.00 99 1014.9
20260507102718 6 107 0.0 0.0 0.00 0.00 0.00 99 1014.6
20260507102215 6 107 0.0 0.0 0.00 0.00 0.00 99 1014.6
20260507101712 6 107 0.0 0.0 0.00 0.00 0.00 99 1014.5
20260507101207 6 108 0.0 0.0 0.00 0.00 0.00 99 1014.6
20260507100705 6 122 0.0 0.0 0.00 0.00 0.00 98 1014.7
20260507100203 6 172 0.0 0.0 0.00 0.00 0.00 97 1014.8
20260507095700 7 176 0.0 0.0 0.00 0.00 0.00 95 1014.7
20260507095156 7 235 0.0 0.0 0.00 0.00 0.00 96 1014.6
20260507094653 7 220 0.0 0.0 0.00 0.00 0.00 97 1014.8
20260507094150 7 219 0.0 0.0 0.00 0.00 0.00 96 1014.5
20260507093647 7 219 0.0 0.0 0.00 0.00 0.00 96 1014.6
20260507093146 7 220 1.6 1.6 0.00 0.00 0.00 96 1014.3
20260507092642 7 5 1.6 1.6 0.00 0.00 0.00 97 1014.5
20260507092139 7 359 0.0 0.0 0.00 0.00 0.00 96 1014.4
20260507091635 8 344 0.0 0.0 0.00 0.00 0.00 94 1014.6
20260507091131 8 346 0.0 0.0 0.00 0.00 0.00 94 1014.3
20260507090627 8 345 0.0 0.0 0.00 0.00 0.00 93 1014.6
20260507090125 8 337 0.0 0.0 0.00 0.00 0.00 94 1014.6
20260507085622 8 237 0.0 1.6 0.00 0.00 0.00 96 1014.4
20260507085118 8 239 0.0 0.0 0.00 0.00 0.00 95 1014.5
20260507084615 8 250 0.0 0.0 0.00 0.00 0.00 95 1014.3
20260507084112 8 233 0.0 0.0 0.00 0.00 0.00 96 1014.3
20260507083609 8 266 0.0 0.0 0.00 0.00 0.00 93 1014.6
20260507083106 8 266 0.0 0.0 0.00 0.00 0.00 94 1014.3
20260507082601 8 267 0.0 0.0 0.00 0.00 0.00 90 1014.6
20260507082058 8 277 0.0 0.0 0.00 0.00 0.00 90 1014.7
20260507081554 8 350 0.0 0.0 0.00 0.00 0.00 92 1014.4
20260507081051 8 248 3.2 3.2 0.00 0.00 0.00 97 1014.6
20260507080547 8 95 0.0 0.0 0.00 0.00 0.00 98 1014.5
20260507080044 8 95 0.0 0.0 0.00 0.00 0.00 98 1014.3
20260507075539 8 278 0.0 0.0 0.00 0.00 0.00 97 1014.5
20260507075036 8 278 0.0 0.0 0.00 0.00 0.00 96 1014.4
20260507074532 9 278 0.0 0.0 0.00 0.00 0.00 96 1014.5
20260507074031 9 278 0.0 0.0 0.00 0.00 0.00 93 1014.5
20260507073527 9 278 0.0 0.0 0.00 0.00 0.00 92 1014.3
20260507073023 9 307 0.0 0.0 0.00 0.00 0.00 90 1014.3
20260507072521 9 257 0.0 0.0 0.00 0.00 0.00 93 1014.4
20260507072018 9 263 0.0 0.0 0.00 0.00 0.00 93 1014.4
20260507071515 9 257 0.0 1.6 0.00 0.00 0.00 94 1014.6
20260507071012 9 252 1.6 3.2 0.00 0.00 0.00 96 1014.4
20260507070509 9 253 0.0 0.0 0.00 0.00 0.00 97 1014.3
20260507070010 9 250 3.2 3.2 0.00 0.00 0.00 97 1014.3
20260507065502 10 237 0.0 0.0 0.00 0.00 0.00 99 1014.4
20260507064959 10 351 0.0 0.0 0.00 0.00 0.00 99 1014.3
20260507064457 10 242 0.0 0.0 0.00 0.00 0.00 99 1014.3
20260507063955 9 242 0.0 0.0 0.00 0.00 0.00 99 1014.4
20260507063452 10 243 0.0 0.0 0.00 0.00 0.00 99 1014.3
20260507062949 10 247 0.0 0.0 0.00 0.00 0.00 99 1014.1
20260507062446 10 247 0.0 0.0 0.00 0.00 0.00 99 1014.3
20260507061943 10 239 0.0 1.6 0.00 0.00 0.00 99 1014.3
20260507061442 10 283 0.0 1.6 0.00 0.00 0.00 99 1014.2
20260507060940 10 254 0.0 3.2 0.00 0.00 0.00 99 1014.6
20260507060436 10 258 0.0 0.0 0.00 0.00 0.00 99 1014.5
20260507055933 10 259 0.0 0.0 0.00 0.00 0.00 99 1014.7
20260507055428 10 261 3.2 3.2 0.00 0.00 0.00 99 1014.7
20260507054920 10 272 0.0 0.0 0.00 0.00 0.00 99 1014.6
20260507054416 10 315 0.0 0.0 0.00 0.00 0.00 99 1014.6
20260507053913 10 319 0.0 0.0 0.00 0.00 0.00 99 1014.7
20260507053411 10 350 0.0 0.0 0.00 0.00 0.00 99 1014.6
20260507052910 10 283 0.0 0.0 0.00 0.00 0.00 99 1014.7
20260507052406 10 282 0.0 0.0 0.00 0.00 0.00 99 1014.9
20260507051903 10 270 0.0 1.6 0.00 0.00 0.00 99 1014.9
20260507051401 10 271 0.0 0.0 0.00 0.00 0.00 99 1014.8
20260507050857 10 272 0.0 0.0 0.00 0.00 0.00 99 1015.0
20260507050354 10 139 0.0 0.0 0.00 0.00 0.00 99 1015.0
20260507045851 10 139 0.0 0.0 0.00 0.00 0.00 99 1014.8
20260507045347 10 139 0.0 0.0 0.00 0.00 0.00 99 1014.8
20260507044844 10 139 0.0 0.0 0.00 0.00 0.00 99 1014.8
20260507044340 10 140 0.0 0.0 0.00 0.00 0.00 99 1014.9
20260507043831 10 140 0.0 0.0 0.00 0.00 0.00 99 1014.9
20260507043328 10 138 0.0 0.0 0.00 0.00 0.00 99 1014.6
20260507042825 10 152 0.0 0.0 0.00 0.00 0.00 99 1014.9
20260507042320 10 150 0.0 0.0 0.00 0.00 0.00 99 1014.7
20260507041817 10 150 0.0 0.0 0.00 0.00 0.00 99 1014.6
20260507041314 10 155 0.0 0.0 0.00 0.00 0.00 99 1014.8
20260507040811 10 131 0.0 0.0 0.00 0.00 0.00 99 1014.8
20260507040307 10 137 0.0 0.0 0.00 1.47 1.47 99 1014.9
20260507035803 10 137 0.0 0.0 0.00 1.47 1.47 99 1014.7
20260507035258 10 137 0.0 0.0 0.00 1.47 1.47 99 1014.7
20260507034757 10 137 0.0 0.0 0.00 1.47 1.47 99 1014.4
20260507034253 10 137 0.0 0.0 0.00 1.47 1.47 99 1014.6
20260507033752 10 137 0.0 0.0 0.00 1.47 1.47 99 1014.7
20260507033249 10 137 0.0 0.0 0.00 1.47 1.47 99 1014.8
20260507032746 10 137 0.0 0.0 0.00 1.47 1.47 99 1014.7
20260507032242 10 138 0.0 0.0 0.00 1.47 1.47 99 1014.7
20260507031738 10 138 0.0 0.0 0.00 1.47 1.47 99 1015.1
20260507031235 10 138 0.0 0.0 0.00 1.47 1.47 99 1015.0
20260507030732 10 138 0.0 0.0 0.00 1.47 1.47 99 1015.1
20260507030229 10 138 0.0 0.0 0.00 1.47 1.47 99 1015.1
20260507025727 10 112 0.0 0.0 0.00 1.47 1.47 99 1015.2
20260507025223 10 112 0.0 0.0 0.00 1.47 1.47 99 1015.0
20260507024722 10 112 0.0 0.0 0.00 1.47 1.47 99 1014.7
20260507024219 10 112 0.0 0.0 0.00 1.47 1.47 99 1014.6